New Castle, PA

11:02 PM EST on November 19, 2019 (GMT -0500)
New Castle Municipal

Weather History for KUCP - October, 2019

Change the Weather History Date:

Sunday, October 20, 2019

  Actual Average Record
Temperature  
Mean Temperature 56 °F -  
Max Temperature 71 °F 60 °F 81 °F (1953)
Min Temperature 42 °F 36 °F 21 °F (1972)
Degree Days  
Heating Degree Days 9    
Growing Degree Days 6 (Base 50)    
Moisture  
Dew Point 45 °F    
Average Humidity 78    
Maximum Humidity 97    
Minimum Humidity 44    
Precipitation  
Precipitation 0.00 in - - ()
Sea Level Pressure  
Sea Level Pressure 29.97 in    
Wind  
Wind Speed 1 mph (SSE)    
Max Wind Speed 6 mph    
Max Gust Speed -    
Visibility 10 miles    
Events      
Averages and records for this station are not official NWS values.
T = Trace of Precipitation, MM = Missing Value Source: NWS Daily Summary

Daily Weather History Graph

Daily Weather History Graph

Search for Another Location

Airport or City:

Astronomy

Oct. 20, 2019 Rise Set
Actual Time 7:38 AM EDT 6:33 PM EDT
Civil Twilight 7:10 AM EDT 7:01 PM EDT
Nautical Twilight 6:38 AM EDT 7:33 PM EDT
Astronomical Twilight 6:06 AM EDT 8:05 PM EDT
Moon 11:39 PM EDT 2:06 PM EDT
Length of Visible Light 11h 51m
Length of Day
10h 55m
Waning Gibbous, 59% of the Moon is Illuminated
Oct 20
Waning Gibbous
Oct 21
Last Quarter
Oct 27
New
Nov 4
First Quarter
Nov 12
Full

Hourly Weather History & Observations

Time (EDT) Temp. Windchill Dew Point Humidity Pressure Visibility Wind Dir Wind Speed Gust Speed Precip Events Conditions
12:56 AM 42.1 °F - 39.9 °F 92% 29.94 in 10.0 mi Calm Calm - N/A   Clear
1:56 AM 42.1 °F - 39.9 °F 92% 29.94 in 10.0 mi Calm Calm - N/A   Clear
2:56 AM 43.0 °F - 41.0 °F 93% 29.93 in 10.0 mi Calm Calm - N/A   Clear
3:56 AM 44.1 °F - 42.1 °F 93% 29.93 in 10.0 mi Calm Calm - N/A   Clear
4:56 AM 43.0 °F - 42.1 °F 97% 29.92 in 10.0 mi Calm Calm - N/A   Clear
5:56 AM 43.0 °F - 42.1 °F 97% 29.93 in 10.0 mi Calm Calm - N/A   Clear
6:56 AM 43.0 °F - 42.1 °F 97% 29.95 in 10.0 mi Calm Calm - N/A   Clear
7:56 AM 45.0 °F 43.5 °F 43.0 °F 93% 29.96 in 10.0 mi East 3.5 mph - N/A   Clear
8:56 AM 45.0 °F - 44.1 °F 97% 29.97 in 9.0 mi Calm Calm - N/A   Clear
9:56 AM 51.1 °F - 46.9 °F 86% 29.98 in 10.0 mi Calm Calm - N/A   Clear
10:56 AM 59.0 °F - 46.9 °F 64% 29.98 in 10.0 mi Variable 3.5 mph - N/A   Clear
11:56 AM 61.0 °F - 48.9 °F 64% 29.98 in 10.0 mi South 3.5 mph - N/A   Clear
12:56 PM 64.9 °F - 46.9 °F 52% 29.97 in 10.0 mi South 5.8 mph - N/A   Clear
1:56 PM 66.9 °F - 46.0 °F 47% 29.96 in 10.0 mi Variable 4.6 mph - N/A   Clear
2:56 PM 68.0 °F - 46.0 °F 45% 29.95 in 10.0 mi West 3.5 mph - N/A   Clear
3:56 PM 70.0 °F - 46.9 °F 44% 29.96 in 10.0 mi South 4.6 mph - N/A   Clear
4:56 PM 69.1 °F - 46.9 °F 45% 29.96 in 10.0 mi ESE 4.6 mph - N/A   Clear
5:56 PM 68.0 °F - 48.0 °F 49% 29.97 in 10.0 mi East 3.5 mph - N/A   Clear
6:56 PM 55.9 °F - 48.0 °F 75% 29.98 in 10.0 mi Calm Calm - N/A   Clear
7:56 PM 54.0 °F - 46.9 °F 77% 30.00 in 10.0 mi Calm Calm - N/A   Clear
8:56 PM 50.0 °F - 46.9 °F 89% 30.03 in 10.0 mi Calm Calm - N/A   Clear
9:56 PM 48.0 °F - 46.0 °F 93% 30.04 in 10.0 mi Calm Calm - N/A   Clear
10:56 PM 46.9 °F - 45.0 °F 93% 30.05 in 10.0 mi Calm Calm - N/A   Clear
11:56 PM 46.0 °F - 45.0 °F 96% 30.06 in 8.0 mi Calm Calm - N/A   Clear